Time,TemperatureF,DewpointF,PressureIn,WindDirection,WindDirectionDegrees,WindSpeedMPH,WindSpeedGustMPH,Humidity,HourlyPrecipIn,Conditions,Clouds,dailyrainin,SoftwareType,DateUTC
2013-09-20 00:01:00,65.4,62.7,29.92,WNW,292,1.0,5.0,91,0.00,,---,0.00,VWS V14.01,2013-09-20 05:01:00,
2013-09-20 00:06:00,65.2,62.5,29.92,NW,325,2.0,5.0,91,0.00,,---,0.00,VWS V14.01,2013-09-20 05:06:00,
2013-09-20 00:11:00,65.1,62.4,29.92,NW,305,2.0,5.0,91,0.00,,---,0.00,VWS V14.01,2013-09-20 05:11:00,
2013-09-20 00:16:00,65.0,62.0,29.93,WNW,283,1.0,1.0,90,0.00,,---,0.00,VWS V14.01,2013-09-20 05:16:00,
2013-09-20 00:21:00,64.9,61.9,29.93,WNW,300,0.0,5.0,90,0.00,,---,0.00,VWS V14.01,2013-09-20 05:21:00,
2013-09-20 00:26:00,64.8,61.8,29.93,WNW,289,0.0,5.0,90,0.00,,---,0.00,VWS V14.01,2013-09-20 05:26:00,
2013-09-20 00:31:00,64.7,61.4,29.94,WNW,289,4.0,6.0,89,0.00,,---,0.00,VWS V14.01,2013-09-20 05:31:00,
2013-09-20 00:36:00,64.6,61.0,29.94,NW,318,0.0,6.0,88,0.00,,---,0.00,VWS V14.01,2013-09-20 05:36:00,
2013-09-20 00:41:00,64.5,60.5,29.94,NNW,348,1.0,5.0,87,0.00,,---,0.00,VWS V14.01,2013-09-20 05:41:00,
2013-09-20 00:46:00,64.4,60.1,29.95,WNW,298,0.0,7.0,86,0.00,,---,0.00,VWS V14.01,2013-09-20 05:46:00,
2013-09-20 00:51:00,64.3,59.4,29.95,West,275,0.0,8.0,84,0.00,,---,0.00,VWS V14.01,2013-09-20 05:51:00,
2013-09-20 00:56:00,64.1,59.2,29.95,WNW,301,0.0,8.0,84,0.00,,---,0.00,VWS V14.01,2013-09-20 05:56:00,
2013-09-20 01:01:00,64.1,58.8,29.95,West,277,2.0,5.0,83,0.00,,---,0.00,VWS V14.01,2013-09-20 06:01:00,
2013-09-20 01:06:00,63.9,58.6,29.96,WSW,255,0.0,0.0,83,0.00,,---,0.00,VWS V14.01,2013-09-20 06:06:00,
2013-09-20 01:11:00,63.8,58.2,29.96,WSW,244,4.0,8.0,82,0.00,,---,0.00,VWS V14.01,2013-09-20 06:11:00,
2013-09-20 01:16:00,63.7,58.5,29.96,WNW,292,0.0,0.0,83,0.00,,---,0.00,VWS V14.01,2013-09-20 06:16:00,
2013-09-20 01:22:00,63.6,58.0,29.97,NW,314,1.0,8.0,82,0.00,,---,0.00,VWS V14.01,2013-09-20 06:22:00,
2013-09-20 01:27:00,63.4,57.8,29.97,SW,221,0.0,0.0,82,0.00,,---,0.00,VWS V14.01,2013-09-20 06:27:00,
2013-09-20 01:32:00,63.3,57.7,29.98,WNW,290,4.0,6.0,82,0.00,,---,0.00,VWS V14.01,2013-09-20 06:32:00,
2013-09-20 01:37:00,63.0,57.1,29.98,WNW,300,0.0,2.0,81,0.00,,---,0.00,VWS V14.01,2013-09-20 06:37:00,
2013-09-20 01:42:00,62.9,57.0,29.99,WNW,289,0.0,5.0,81,0.00,,---,0.00,VWS V14.01,2013-09-20 06:42:00,
2013-09-20 01:47:00,62.7,56.8,29.99,WNW,283,4.0,4.0,81,0.00,,---,0.00,VWS V14.01,2013-09-20 06:47:00,
2013-09-20 01:52:00,62.5,56.2,30.00,NW,304,4.0,6.0,80,0.00,,---,0.00,VWS V14.01,2013-09-20 06:52:00,
2013-09-20 01:57:00,62.3,56.1,29.99,WNW,301,0.0,0.0,80,0.00,,---,0.00,VWS V14.01,2013-09-20 06:57:00,
2013-09-20 02:02:00,62.2,56.0,29.99,WNW,293,4.0,6.0,80,0.00,,---,0.00,VWS V14.01,2013-09-20 07:02:00,
2013-09-20 02:07:00,62.0,55.8,29.99,West,276,0.0,1.0,80,0.00,,---,0.00,VWS V14.01,2013-09-20 07:07:00,
2013-09-20 02:12:00,61.8,55.6,30.00,WNW,299,0.0,4.0,80,0.00,,---,0.00,VWS V14.01,2013-09-20 07:12:00,
2013-09-20 02:17:00,61.8,55.6,30.00,West,279,2.0,2.0,80,0.00,,---,0.00,VWS V14.01,2013-09-20 07:17:00,
2013-09-20 02:22:00,61.6,55.7,30.00,East,96,0.0,4.0,81,0.00,,---,0.00,VWS V14.01,2013-09-20 07:22:00,
2013-09-20 02:27:00,61.6,56.1,30.00,East,96,0.0,0.0,82,0.00,,---,0.00,VWS V14.01,2013-09-20 07:27:00,
2013-09-20 02:32:00,61.5,55.6,30.00,ESE,123,0.0,2.0,81,0.00,,---,0.00,VWS V14.01,2013-09-20 07:32:00,
2013-09-20 02:37:00,61.4,55.2,30.00,ESE,123,0.0,0.0,80,0.00,,---,0.00,VWS V14.01,2013-09-20 07:37:00,
2013-09-20 02:42:00,61.4,55.5,30.00,ESE,123,0.0,1.0,81,0.00,,---,0.00,VWS V14.01,2013-09-20 07:42:00,
2013-09-20 02:47:00,61.3,55.4,30.00,NW,317,1.0,4.0,81,0.00,,---,0.00,VWS V14.01,2013-09-20 07:47:00,
2013-09-20 02:52:00,61.3,55.4,30.01,NW,317,0.0,4.0,81,0.00,,---,0.00,VWS V14.01,2013-09-20 07:52:00,
2013-09-20 02:57:00,61.3,55.4,30.01,NW,310,0.0,0.0,81,0.00,,---,0.00,VWS V14.01,2013-09-20 07:57:00,
2013-09-20 03:02:00,61.3,55.4,30.01,NW,310,0.0,0.0,81,0.00,,---,0.00,VWS V14.01,2013-09-20 08:02:00,
2013-09-20 03:07:00,61.3,55.4,30.01,NW,310,0.0,0.0,81,0.00,,---,0.00,VWS V14.01,2013-09-20 08:07:00,
2013-09-20 03:12:00,61.3,55.4,30.00,NW,310,0.0,4.0,81,0.00,,---,0.00,VWS V14.01,2013-09-20 08:12:00,
2013-09-20 03:17:00,61.3,55.1,30.00,NW,310,0.0,0.0,80,0.00,,---,0.00,VWS V14.01,2013-09-20 08:17:00,
2013-09-20 03:22:00,61.3,55.1,30.00,NW,307,0.0,2.0,80,0.00,,---,0.00,VWS V14.01,2013-09-20 08:22:00,
2013-09-20 03:27:00,61.2,55.3,30.00,NW,307,1.0,1.0,81,0.00,,---,0.00,VWS V14.01,2013-09-20 08:27:00,
2013-09-20 03:32:00,61.2,55.3,30.00,NW,307,0.0,2.0,81,0.00,,---,0.00,VWS V14.01,2013-09-20 08:32:00,
2013-09-20 03:37:00,61.2,55.0,30.01,NW,307,1.0,2.0,80,0.00,,---,0.00,VWS V14.01,2013-09-20 08:37:00,
2013-09-20 03:42:00,61.1,54.9,30.00,WNW,298,0.0,5.0,80,0.00,,---,0.00,VWS V14.01,2013-09-20 08:42:00,
2013-09-20 03:47:00,61.1,55.2,30.00,WNW,298,0.0,0.0,81,0.00,,---,0.00,VWS V14.01,2013-09-20 08:47:00,
2013-09-20 03:52:00,61.1,54.9,30.00,WNW,298,0.0,1.0,80,0.00,,---,0.00,VWS V14.01,2013-09-20 08:52:00,
2013-09-20 03:57:00,61.1,55.2,30.00,WNW,298,0.0,2.0,81,0.00,,---,0.00,VWS V14.01,2013-09-20 08:57:00,
2013-09-20 04:02:00,61.1,54.9,30.00,WNW,297,0.0,2.0,80,0.00,,---,0.00,VWS V14.01,2013-09-20 09:02:00,
2013-09-20 04:07:00,61.0,54.8,30.01,WNW,297,0.0,1.0,80,0.00,,---,0.00,VWS V14.01,2013-09-20 09:07:00,
2013-09-20 04:12:00,61.0,54.5,30.01,West,279,0.0,7.0,79,0.00,,---,0.00,VWS V14.01,2013-09-20 09:12:00,
2013-09-20 04:17:00,61.0,54.8,30.01,WNW,288,0.0,0.0,80,0.00,,---,0.00,VWS V14.01,2013-09-20 09:17:00,
2013-09-20 04:22:00,61.0,54.8,30.01,NNE,25,0.0,3.0,80,0.00,,---,0.00,VWS V14.01,2013-09-20 09:22:00,
2013-09-20 04:27:00,60.9,54.3,30.01,NW,307,4.0,4.0,79,0.00,,---,0.00,VWS V14.01,2013-09-20 09:27:00,
2013-09-20 04:32:00,60.9,54.3,30.01,WNW,298,1.0,4.0,79,0.00,,---,0.00,VWS V14.01,2013-09-20 09:32:00,
2013-09-20 04:37:00,60.8,54.3,30.02,WNW,298,0.0,0.0,79,0.00,,---,0.00,VWS V14.01,2013-09-20 09:37:00,
2013-09-20 04:42:00,60.7,54.5,30.02,WNW,298,0.0,4.0,80,0.00,,---,0.00,VWS V14.01,2013-09-20 09:42:00,
2013-09-20 04:48:00,60.6,54.4,30.02,WNW,296,1.0,1.0,80,0.00,,---,0.00,VWS V14.01,2013-09-20 09:48:00,
2013-09-20 04:53:00,60.5,54.3,30.02,WNW,296,0.0,1.0,80,0.00,,---,0.00,VWS V14.01,2013-09-20 09:53:00,
2013-09-20 04:58:00,60.4,54.5,30.02,WNW,296,0.0,0.0,81,0.00,,---,0.00,VWS V14.01,2013-09-20 09:58:00,
2013-09-20 05:03:00,60.3,54.8,30.03,WNW,296,1.0,2.0,82,0.00,,---,0.00,VWS V14.01,2013-09-20 10:03:00,
2013-09-20 05:08:00,60.1,54.6,30.03,NW,309,0.0,1.0,82,0.00,,---,0.00,VWS V14.01,2013-09-20 10:08:00,
2013-09-20 05:13:00,60.0,54.8,30.03,NW,309,1.0,2.0,83,0.00,,---,0.00,VWS V14.01,2013-09-20 10:13:00,
2013-09-20 05:18:00,59.9,54.7,30.03,NW,309,0.0,0.0,83,0.00,,---,0.00,VWS V14.01,2013-09-20 10:18:00,
2013-09-20 05:23:00,59.8,54.6,30.03,NW,309,0.0,1.0,83,0.00,,---,0.00,VWS V14.01,2013-09-20 10:23:00,
2013-09-20 05:28:00,59.6,54.4,30.03,NW,309,2.0,2.0,83,0.00,,---,0.00,VWS V14.01,2013-09-20 10:28:00,
2013-09-20 05:33:00,59.5,54.3,30.03,NW,309,0.0,4.0,83,0.00,,---,0.00,VWS V14.01,2013-09-20 10:33:00,
2013-09-20 05:38:00,59.4,54.6,30.03,NW,309,0.0,0.0,84,0.00,,---,0.00,VWS V14.01,2013-09-20 10:38:00,
2013-09-20 05:43:00,59.3,54.5,30.04,NW,309,0.0,1.0,84,0.00,,---,0.00,VWS V14.01,2013-09-20 10:43:00,
2013-09-20 05:48:00,59.2,54.4,30.04,NW,311,0.0,0.0,84,0.00,,---,0.00,VWS V14.01,2013-09-20 10:48:00,
2013-09-20 05:53:00,59.1,54.3,30.04,NW,311,0.0,1.0,84,0.00,,---,0.00,VWS V14.01,2013-09-20 10:53:00,
2013-09-20 05:58:00,59.0,54.2,30.04,NW,311,0.0,0.0,84,0.00,,---,0.00,VWS V14.01,2013-09-20 10:58:00,
2013-09-20 06:03:00,58.9,54.1,30.04,NW,311,0.0,2.0,84,0.00,,---,0.00,VWS V14.01,2013-09-20 11:03:00,
2013-09-20 06:08:00,58.8,54.3,30.04,NW,311,0.0,1.0,85,0.00,,---,0.00,VWS V14.01,2013-09-20 11:08:00,
2013-09-20 06:13:00,58.7,54.2,30.04,NW,311,0.0,1.0,85,0.00,,---,0.00,VWS V14.01,2013-09-20 11:13:00,
2013-09-20 06:18:00,58.6,54.1,30.04,NW,311,0.0,0.0,85,0.00,,---,0.00,VWS V14.01,2013-09-20 11:18:00,
2013-09-20 06:23:00,58.5,54.0,30.04,NW,311,0.0,1.0,85,0.00,,---,0.00,VWS V14.01,2013-09-20 11:23:00,
2013-09-20 06:28:00,58.4,53.9,30.04,NW,311,0.0,0.0,85,0.00,,---,0.00,VWS V14.01,2013-09-20 11:28:00,
2013-09-20 06:33:00,58.3,53.8,30.04,NW,311,0.0,2.0,85,0.00,,---,0.00,VWS V14.01,2013-09-20 11:33:00,
2013-09-20 06:38:00,58.2,54.0,30.05,NW,311,0.0,1.0,86,0.00,,---,0.00,VWS V14.01,2013-09-20 11:38:00,
2013-09-20 06:43:00,58.1,53.9,30.05,NW,311,1.0,2.0,86,0.00,,---,0.00,VWS V14.01,2013-09-20 11:43:00,
2013-09-20 06:48:00,58.0,53.5,30.05,NW,311,0.0,1.0,85,0.00,,---,0.00,VWS V14.01,2013-09-20 11:48:00,
2013-09-20 06:53:00,57.9,53.7,30.05,NW,311,0.0,1.0,86,0.00,,---,0.00,VWS V14.01,2013-09-20 11:53:00,
2013-09-20 06:58:00,57.8,53.3,30.05,NW,311,0.0,1.0,85,0.00,,---,0.00,VWS V14.01,2013-09-20 11:58:00,
2013-09-20 07:03:00,57.7,53.2,30.06,NW,311,1.0,4.0,85,0.00,,---,0.00,VWS V14.01,2013-09-20 12:03:00,
2013-09-20 07:08:00,57.7,53.2,30.06,NW,308,0.0,4.0,85,0.00,,---,0.00,VWS V14.01,2013-09-20 12:08:00,
2013-09-20 07:13:00,57.6,53.1,30.06,NW,304,0.0,4.0,85,0.00,,---,0.00,VWS V14.01,2013-09-20 12:13:00,
2013-09-20 07:18:00,57.6,53.1,30.06,NW,304,0.0,1.0,85,0.00,,---,0.00,VWS V14.01,2013-09-20 12:18:00,
2013-09-20 07:23:00,57.6,53.1,30.06,NW,304,1.0,4.0,85,0.00,,---,0.00,VWS V14.01,2013-09-20 12:23:00,
2013-09-20 07:28:00,57.5,53.0,30.07,NW,304,1.0,2.0,85,0.00,,---,0.00,VWS V14.01,2013-09-20 12:28:00,
2013-09-20 07:33:00,57.5,52.7,30.07,WNW,294,0.0,4.0,84,0.00,,---,0.00,VWS V14.01,2013-09-20 12:33:00,
2013-09-20 07:38:00,57.5,52.7,30.08,WNW,295,0.0,2.0,84,0.00,,---,0.00,VWS V14.01,2013-09-20 12:38:00,
2013-09-20 07:43:00,57.6,52.8,30.08,WNW,295,0.0,4.0,84,0.00,,---,0.00,VWS V14.01,2013-09-20 12:43:00,
2013-09-20 07:48:00,57.6,52.8,30.08,WNW,295,0.0,1.0,84,0.00,,---,0.00,VWS V14.01,2013-09-20 12:48:00,
2013-09-20 07:53:00,57.6,53.1,30.08,WNW,295,0.0,1.0,85,0.00,,---,0.00,VWS V14.01,2013-09-20 12:53:00,
2013-09-20 07:58:00,57.6,52.8,30.08,WNW,300,0.0,5.0,84,0.00,,---,0.00,VWS V14.01,2013-09-20 12:58:00,
2013-09-20 08:03:00,57.6,52.8,30.08,West,274,0.0,5.0,84,0.00,,---,0.00,VWS V14.01,2013-09-20 13:03:00,
2013-09-20 08:08:00,57.6,53.1,30.08,NNW,332,0.0,2.0,85,0.00,,---,0.00,VWS V14.01,2013-09-20 13:08:00,
2013-09-20 08:13:00,57.7,53.2,30.08,NW,304,0.0,4.0,85,0.00,,---,0.00,VWS V14.01,2013-09-20 13:13:00,
2013-09-20 08:19:00,57.7,53.2,30.09,NW,310,1.0,2.0,85,0.00,,---,0.00,VWS V14.01,2013-09-20 13:19:00,
2013-09-20 08:24:00,57.7,53.2,30.08,WNW,282,1.0,5.0,85,0.00,,---,0.00,VWS V14.01,2013-09-20 13:24:00,
2013-09-20 08:29:00,57.7,52.6,30.08,WNW,302,2.0,4.0,83,0.00,,---,0.00,VWS V14.01,2013-09-20 13:29:00,
2013-09-20 08:34:00,57.6,52.2,30.08,WSW,257,2.0,8.0,82,0.00,,---,0.00,VWS V14.01,2013-09-20 13:34:00,
2013-09-20 08:39:00,57.7,51.9,30.09,WNW,290,5.0,6.0,81,0.00,,---,0.00,VWS V14.01,2013-09-20 13:39:00,
2013-09-20 08:44:00,57.7,51.6,30.09,West,277,1.0,6.0,80,0.00,,---,0.00,VWS V14.01,2013-09-20 13:44:00,
2013-09-20 08:49:00,57.8,52.0,30.09,NW,315,1.0,4.0,81,0.00,,---,0.00,VWS V14.01,2013-09-20 13:49:00,
2013-09-20 08:54:00,57.9,52.1,30.09,WNW,288,1.0,5.0,81,0.00,,---,0.00,VWS V14.01,2013-09-20 13:54:00,
2013-09-20 08:59:00,58.0,52.5,30.09,WNW,292,0.0,2.0,82,0.00,,---,0.00,VWS V14.01,2013-09-20 13:59:00,
2013-09-20 09:04:00,58.2,52.4,30.09,NNW,331,0.0,6.0,81,0.00,,---,0.00,VWS V14.01,2013-09-20 14:04:00,
2013-09-20 09:09:00,58.3,52.5,30.09,NW,318,2.0,6.0,81,0.00,,---,0.00,VWS V14.01,2013-09-20 14:09:00,
2013-09-20 09:14:00,58.4,52.3,30.09,NW,315,0.0,6.0,80,0.00,,---,0.00,VWS V14.01,2013-09-20 14:14:00,
2013-09-20 09:19:00,58.6,52.5,30.09,North,5,1.0,5.0,80,0.00,,---,0.00,VWS V14.01,2013-09-20 14:19:00,
2013-09-20 09:24:00,58.7,52.2,30.09,West,277,0.0,5.0,79,0.00,,---,0.00,VWS V14.01,2013-09-20 14:24:00,
2013-09-20 09:29:00,58.9,52.1,30.09,North,355,1.0,7.0,78,0.00,,---,0.00,VWS V14.01,2013-09-20 14:29:00,
2013-09-20 09:34:00,59.0,51.8,30.09,NW,311,4.0,7.0,77,0.00,,---,0.00,VWS V14.01,2013-09-20 14:34:00,
2013-09-20 09:39:00,59.1,52.3,30.09,NW,311,1.0,5.0,78,0.00,,---,0.00,VWS V14.01,2013-09-20 14:39:00,
2013-09-20 09:44:00,59.2,51.7,30.10,NW,313,1.0,7.0,76,0.00,,---,0.00,VWS V14.01,2013-09-20 14:44:00,
2013-09-20 09:49:00,59.3,52.1,30.10,NNE,29,3.0,5.0,77,0.00,,---,0.00,VWS V14.01,2013-09-20 14:49:00,
2013-09-20 09:54:00,59.5,51.9,30.10,NNW,341,0.0,5.0,76,0.00,,---,0.00,VWS V14.01,2013-09-20 14:54:00,
2013-09-20 09:59:00,59.8,52.2,30.10,NNW,333,0.0,2.0,76,0.00,,---,0.00,VWS V14.01,2013-09-20 14:59:00,
2013-09-20 10:04:00,60.0,52.1,30.09,West,273,0.0,5.0,75,0.00,,---,0.00,VWS V14.01,2013-09-20 15:04:00,
2013-09-20 10:09:00,60.2,51.9,30.09,WNW,297,4.0,5.0,74,0.00,,---,0.00,VWS V14.01,2013-09-20 15:09:00,
2013-09-20 10:14:00,60.4,51.7,30.10,West,269,0.0,5.0,73,0.00,,---,0.00,VWS V14.01,2013-09-20 15:14:00,
2013-09-20 10:19:00,60.6,51.9,30.10,North,355,0.0,4.0,73,0.00,,---,0.00,VWS V14.01,2013-09-20 15:19:00,
2013-09-20 10:24:00,60.9,52.2,30.10,NNE,26,0.0,6.0,73,0.00,,---,0.00,VWS V14.01,2013-09-20 15:24:00,
2013-09-20 10:29:00,61.1,52.0,30.10,NW,319,2.0,9.0,72,0.00,,---,0.00,VWS V14.01,2013-09-20 15:29:00,
2013-09-20 10:34:00,61.2,51.3,30.10,WSW,257,3.0,9.0,70,0.00,,---,0.00,VWS V14.01,2013-09-20 15:34:00,
2013-09-20 10:39:00,61.3,51.1,30.10,West,260,3.0,5.0,69,0.00,,---,0.00,VWS V14.01,2013-09-20 15:39:00,
2013-09-20 10:44:00,61.6,51.3,30.10,West,267,2.0,8.0,69,0.00,,---,0.00,VWS V14.01,2013-09-20 15:44:00,
2013-09-20 10:49:00,61.9,51.2,30.10,WNW,300,4.0,8.0,68,0.00,,---,0.00,VWS V14.01,2013-09-20 15:49:00,
2013-09-20 10:54:00,62.0,51.3,30.10,WNW,295,6.0,8.0,68,0.00,,---,0.00,VWS V14.01,2013-09-20 15:54:00,
2013-09-20 10:59:00,62.3,52.0,30.10,SW,215,2.0,4.0,69,0.00,,---,0.00,VWS V14.01,2013-09-20 15:59:00,
2013-09-20 11:04:00,62.6,51.9,30.10,NE,35,1.0,5.0,68,0.00,,---,0.00,VWS V14.01,2013-09-20 16:04:00,
2013-09-20 11:09:00,62.9,51.8,30.10,NE,40,1.0,5.0,67,0.00,,---,0.00,VWS V14.01,2013-09-20 16:09:00,
2013-09-20 11:14:00,63.0,51.5,30.10,NNW,340,4.0,9.0,66,0.00,,---,0.00,VWS V14.01,2013-09-20 16:14:00,
2013-09-20 11:19:00,63.1,51.6,30.10,WNW,287,0.0,4.0,66,0.00,,---,0.00,VWS V14.01,2013-09-20 16:19:00,
2013-09-20 11:24:00,63.5,52.4,30.10,West,273,2.0,5.0,67,0.00,,---,0.00,VWS V14.01,2013-09-20 16:24:00,
2013-09-20 11:29:00,64.0,52.8,30.10,West,275,0.0,4.0,67,0.00,,---,0.00,VWS V14.01,2013-09-20 16:29:00,
2013-09-20 11:34:00,64.5,51.6,30.09,NNW,338,1.0,6.0,63,0.00,,---,0.00,VWS V14.01,2013-09-20 16:34:00,
2013-09-20 11:39:00,64.7,52.3,30.09,North,5,3.0,7.0,64,0.00,,---,0.00,VWS V14.01,2013-09-20 16:39:00,
2013-09-20 11:44:00,65.0,51.7,30.09,NW,311,2.0,8.0,62,0.00,,---,0.00,VWS V14.01,2013-09-20 16:44:00,
2013-09-20 11:50:00,65.1,51.3,30.09,ESE,119,1.0,6.0,61,0.00,,---,0.00,VWS V14.01,2013-09-20 16:50:00,
2013-09-20 11:55:00,65.3,50.6,30.08,NW,312,2.0,7.0,59,0.00,,---,0.00,VWS V14.01,2013-09-20 16:55:00,
2013-09-20 12:00:00,65.5,51.3,30.09,West,271,2.0,6.0,60,0.00,,---,0.00,VWS V14.01,2013-09-20 17:00:00,
2013-09-20 12:05:00,65.6,49.0,30.08,West,279,1.0,11.0,55,0.00,,---,0.00,VWS V14.01,2013-09-20 17:05:00,
2013-09-20 12:10:00,65.4,49.8,30.08,WNW,302,2.0,9.0,57,0.00,,---,0.00,VWS V14.01,2013-09-20 17:10:00,
2013-09-20 12:15:00,65.3,49.2,30.08,WNW,293,4.0,9.0,56,0.00,,---,0.00,VWS V14.01,2013-09-20 17:15:00,
2013-09-20 12:20:00,65.3,48.7,30.08,NW,319,2.0,11.0,55,0.00,,---,0.00,VWS V14.01,2013-09-20 17:20:00,
2013-09-20 12:25:00,65.6,49.0,30.08,WSW,256,2.0,11.0,55,0.00,,---,0.00,VWS V14.01,2013-09-20 17:25:00,
2013-09-20 12:30:00,65.8,49.2,30.08,SW,231,2.0,7.0,55,0.00,,---,0.00,VWS V14.01,2013-09-20 17:30:00,
2013-09-20 12:35:00,66.0,48.9,30.08,WNW,300,1.0,7.0,54,0.00,,---,0.00,VWS V14.01,2013-09-20 17:35:00,
2013-09-20 12:40:00,66.1,50.0,30.08,West,273,4.0,7.0,56,0.00,,---,0.00,VWS V14.01,2013-09-20 17:40:00,
2013-09-20 12:45:00,66.2,50.1,30.08,West,281,1.0,7.0,56,0.00,,---,0.00,VWS V14.01,2013-09-20 17:45:00,
2013-09-20 12:50:00,66.4,50.2,30.08,WNW,302,2.0,7.0,56,0.00,,---,0.00,VWS V14.01,2013-09-20 17:50:00,
2013-09-20 12:55:00,66.3,49.7,30.08,WNW,286,2.0,9.0,55,0.00,,---,0.00,VWS V14.01,2013-09-20 17:55:00,
2013-09-20 13:00:00,66.2,51.0,30.07,West,269,1.0,6.0,58,0.00,,---,0.00,VWS V14.01,2013-09-20 18:00:00,
2013-09-20 13:05:00,66.2,50.5,30.07,North,360,2.0,8.0,57,0.00,,---,0.00,VWS V14.01,2013-09-20 18:05:00,
2013-09-20 13:10:00,66.1,50.9,30.07,West,274,4.0,7.0,58,0.00,,---,0.00,VWS V14.01,2013-09-20 18:10:00,
2013-09-20 13:15:00,66.2,51.0,30.07,WNW,282,2.0,7.0,58,0.00,,---,0.00,VWS V14.01,2013-09-20 18:15:00,
2013-09-20 13:20:00,66.4,50.7,30.07,West,278,8.0,8.0,57,0.00,,---,0.00,VWS V14.01,2013-09-20 18:20:00,
2013-09-20 13:25:00,66.5,51.8,30.07,NE,37,1.0,8.0,59,0.00,,---,0.00,VWS V14.01,2013-09-20 18:25:00,
2013-09-20 13:30:00,66.7,51.9,30.07,WSW,238,1.0,3.0,59,0.00,,---,0.00,VWS V14.01,2013-09-20 18:30:00,
2013-09-20 13:35:00,66.9,51.7,30.07,NW,306,5.0,8.0,58,0.00,,---,0.00,VWS V14.01,2013-09-20 18:35:00,
2013-09-20 13:40:00,67.1,51.4,30.06,NW,308,1.0,7.0,57,0.00,,---,0.00,VWS V14.01,2013-09-20 18:40:00,
2013-09-20 13:45:00,67.3,52.0,30.06,WNW,298,2.0,7.0,58,0.00,,---,0.00,VWS V14.01,2013-09-20 18:45:00,
2013-09-20 13:50:00,67.6,51.8,30.06,NW,309,2.0,5.0,57,0.00,,---,0.00,VWS V14.01,2013-09-20 18:50:00,
2013-09-20 13:55:00,67.8,52.0,30.06,West,273,1.0,8.0,57,0.00,,---,0.00,VWS V14.01,2013-09-20 18:55:00,
2013-09-20 14:00:00,68.1,51.8,30.05,WNW,290,4.0,7.0,56,0.00,,---,0.00,VWS V14.01,2013-09-20 19:00:00,
2013-09-20 14:05:00,68.0,51.7,30.05,West,272,6.0,9.0,56,0.00,,---,0.00,VWS V14.01,2013-09-20 19:05:00,
2013-09-20 14:10:00,67.9,51.2,30.05,West,281,1.0,8.0,55,0.00,,---,0.00,VWS V14.01,2013-09-20 19:10:00,
2013-09-20 14:15:00,68.1,51.8,30.05,NW,304,2.0,8.0,56,0.00,,---,0.00,VWS V14.01,2013-09-20 19:15:00,
2013-09-20 14:20:00,68.4,52.6,30.05,WNW,284,4.0,4.0,57,0.00,,---,0.00,VWS V14.01,2013-09-20 19:20:00,
2013-09-20 14:25:00,68.6,51.3,30.05,WNW,284,1.0,6.0,54,0.00,,---,0.00,VWS V14.01,2013-09-20 19:25:00,
2013-09-20 14:30:00,68.5,51.7,30.05,NW,308,2.0,7.0,55,0.00,,---,0.00,VWS V14.01,2013-09-20 19:30:00,
2013-09-20 14:35:00,68.5,51.7,30.04,WNW,293,0.0,7.0,55,0.00,,---,0.00,VWS V14.01,2013-09-20 19:35:00,
2013-09-20 14:40:00,68.6,52.3,30.04,West,273,1.0,5.0,56,0.00,,---,0.00,VWS V14.01,2013-09-20 19:40:00,
2013-09-20 14:45:00,68.9,52.6,30.04,West,280,1.0,5.0,56,0.00,,---,0.00,VWS V14.01,2013-09-20 19:45:00,
2013-09-20 14:50:00,69.2,52.8,30.03,West,277,4.0,6.0,56,0.00,,---,0.00,VWS V14.01,2013-09-20 19:50:00,
2013-09-20 14:55:00,69.4,52.0,30.03,WNW,287,2.0,6.0,54,0.00,,---,0.00,VWS V14.01,2013-09-20 19:55:00,
2013-09-20 15:01:00,69.5,51.6,30.03,West,280,0.0,8.0,53,0.00,,---,0.00,VWS V14.01,2013-09-20 20:01:00,
2013-09-20 15:06:00,69.4,52.0,30.03,NNW,344,1.0,8.0,54,0.00,,---,0.00,VWS V14.01,2013-09-20 20:06:00,
2013-09-20 15:11:00,69.5,51.1,30.03,NNW,328,0.0,4.0,52,0.00,,---,0.00,VWS V14.01,2013-09-20 20:11:00,
2013-09-20 15:16:00,69.7,51.3,30.03,WNW,302,7.0,8.0,52,0.00,,---,0.00,VWS V14.01,2013-09-20 20:16:00,
2013-09-20 15:21:00,69.6,52.2,30.02,West,275,1.0,6.0,54,0.00,,---,0.00,VWS V14.01,2013-09-20 20:21:00,
2013-09-20 15:26:00,69.9,52.0,30.02,NW,312,2.0,7.0,53,0.00,,---,0.00,VWS V14.01,2013-09-20 20:26:00,
2013-09-20 15:31:00,69.9,51.5,30.02,NW,315,0.0,6.0,52,0.00,,---,0.00,VWS V14.01,2013-09-20 20:31:00,
2013-09-20 15:36:00,70.0,51.1,30.02,SW,230,2.0,6.0,51,0.00,,---,0.00,VWS V14.01,2013-09-20 20:36:00,
2013-09-20 15:41:00,70.2,51.2,30.02,WNW,282,1.0,8.0,51,0.00,,---,0.00,VWS V14.01,2013-09-20 20:41:00,
2013-09-20 15:46:00,70.3,51.9,30.02,NW,309,2.0,8.0,52,0.00,,---,0.00,VWS V14.01,2013-09-20 20:46:00,
2013-09-20 15:51:00,70.3,51.9,30.02,West,277,4.0,7.0,52,0.00,,---,0.00,VWS V14.01,2013-09-20 20:51:00,
2013-09-20 15:56:00,70.2,51.2,30.02,NE,45,2.0,7.0,51,0.00,,---,0.00,VWS V14.01,2013-09-20 20:56:00,
2013-09-20 16:01:00,70.0,51.6,30.01,SSW,211,0.0,6.0,52,0.00,,---,0.00,VWS V14.01,2013-09-20 21:01:00,
2013-09-20 16:06:00,70.1,51.7,30.02,West,273,2.0,7.0,52,0.00,,---,0.00,VWS V14.01,2013-09-20 21:06:00,
2013-09-20 16:11:00,70.1,51.7,30.01,West,273,1.0,5.0,52,0.00,,---,0.00,VWS V14.01,2013-09-20 21:11:00,
2013-09-20 16:16:00,70.1,51.7,30.01,NE,45,1.0,5.0,52,0.00,,---,0.00,VWS V14.01,2013-09-20 21:16:00,
2013-09-20 16:21:00,70.0,51.1,30.01,WNW,294,2.0,7.0,51,0.00,,---,0.00,VWS V14.01,2013-09-20 21:21:00,
2013-09-20 16:26:00,69.9,51.0,30.01,WNW,302,7.0,7.0,51,0.00,,---,0.00,VWS V14.01,2013-09-20 21:26:00,
2013-09-20 16:31:00,69.6,50.7,30.01,WNW,282,2.0,6.0,51,0.00,,---,0.00,VWS V14.01,2013-09-20 21:31:00,
2013-09-20 16:36:00,69.5,51.6,30.01,ENE,59,5.0,6.0,53,0.00,,---,0.00,VWS V14.01,2013-09-20 21:36:00,
2013-09-20 16:41:00,69.4,51.0,30.01,ENE,62,1.0,7.0,52,0.00,,---,0.00,VWS V14.01,2013-09-20 21:41:00,
2013-09-20 16:46:00,69.2,50.8,30.01,WNW,302,0.0,7.0,52,0.00,,---,0.00,VWS V14.01,2013-09-20 21:46:00,
2013-09-20 16:51:00,69.1,51.3,30.01,WNW,295,0.0,8.0,53,0.00,,---,0.00,VWS V14.01,2013-09-20 21:51:00,
2013-09-20 16:56:00,69.1,51.3,30.01,NE,46,2.0,8.0,53,0.00,,---,0.00,VWS V14.01,2013-09-20 21:56:00,
2013-09-20 17:01:00,69.1,51.3,30.01,WNW,300,0.0,5.0,53,0.00,,---,0.00,VWS V14.01,2013-09-20 22:01:00,
2013-09-20 17:06:00,69.2,51.9,30.01,WNW,294,0.0,5.0,54,0.00,,---,0.00,VWS V14.01,2013-09-20 22:06:00,
2013-09-20 17:11:00,69.3,51.5,30.01,NE,44,0.0,11.0,53,0.00,,---,0.00,VWS V14.01,2013-09-20 22:11:00,
2013-09-20 17:16:00,69.3,52.0,30.01,WNW,283,0.0,11.0,54,0.00,,---,0.00,VWS V14.01,2013-09-20 22:16:00,
2013-09-20 17:21:00,69.4,51.5,30.01,West,267,1.0,6.0,53,0.00,,---,0.00,VWS V14.01,2013-09-20 22:21:00,
2013-09-20 17:26:00,69.4,52.0,30.01,NNE,19,0.0,6.0,54,0.00,,---,0.00,VWS V14.01,2013-09-20 22:26:00,
2013-09-20 17:31:00,69.4,51.5,30.01,WNW,300,4.0,5.0,53,0.00,,---,0.00,VWS V14.01,2013-09-20 22:31:00,
2013-09-20 17:37:00,69.4,51.5,30.01,NE,52,3.0,3.0,53,0.00,,---,0.00,VWS V14.01,2013-09-20 22:37:00,
2013-09-20 17:42:00,69.3,52.0,30.01,West,259,1.0,6.0,54,0.00,,---,0.00,VWS V14.01,2013-09-20 22:42:00,
2013-09-20 17:47:00,69.2,51.4,30.01,NNW,338,2.0,2.0,53,0.00,,---,0.00,VWS V14.01,2013-09-20 22:47:00,
2013-09-20 17:52:00,69.2,51.4,30.01,NW,321,0.0,4.0,53,0.00,,---,0.00,VWS V14.01,2013-09-20 22:52:00,
2013-09-20 17:57:00,69.2,51.4,30.01,NW,318,0.0,0.0,53,0.00,,---,0.00,VWS V14.01,2013-09-20 22:57:00,
2013-09-20 18:02:00,69.1,51.3,30.01,NW,315,0.0,4.0,53,0.00,,---,0.00,VWS V14.01,2013-09-20 23:02:00,
2013-09-20 18:07:00,69.1,51.8,30.01,West,281,0.0,1.0,54,0.00,,---,0.00,VWS V14.01,2013-09-20 23:07:00,
2013-09-20 18:12:00,69.0,51.2,30.01,West,274,0.0,5.0,53,0.00,,---,0.00,VWS V14.01,2013-09-20 23:12:00,
2013-09-20 18:17:00,68.9,51.6,30.02,West,277,0.0,1.0,54,0.00,,---,0.00,VWS V14.01,2013-09-20 23:17:00,
2013-09-20 18:22:00,68.8,51.5,30.02,NNW,340,0.0,5.0,54,0.00,,---,0.00,VWS V14.01,2013-09-20 23:22:00,
2013-09-20 18:27:00,68.7,50.9,30.02,WNW,296,0.0,1.0,53,0.00,,---,0.00,VWS V14.01,2013-09-20 23:27:00,
2013-09-20 18:32:00,68.6,51.3,30.02,WNW,296,0.0,2.0,54,0.00,,---,0.00,VWS V14.01,2013-09-20 23:32:00,
2013-09-20 18:37:00,68.6,51.8,30.02,WNW,296,0.0,0.0,55,0.00,,---,0.00,VWS V14.01,2013-09-20 23:37:00,
2013-09-20 18:42:00,68.4,51.6,30.01,NW,324,0.0,1.0,55,0.00,,---,0.00,VWS V14.01,2013-09-20 23:42:00,
2013-09-20 18:47:00,68.2,51.4,30.02,West,263,0.0,1.0,55,0.00,,---,0.00,VWS V14.01,2013-09-20 23:47:00,
2013-09-20 18:52:00,68.0,51.2,30.01,West,279,0.0,1.0,55,0.00,,---,0.00,VWS V14.01,2013-09-20 23:52:00,
2013-09-20 18:57:00,67.9,51.2,30.02,WNW,298,0.0,2.0,55,0.00,,---,0.00,VWS V14.01,2013-09-20 23:57:00,
2013-09-20 19:02:00,67.7,51.5,30.02,WNW,296,0.0,4.0,56,0.00,,---,0.00,VWS V14.01,2013-09-21 00:02:00,
2013-09-20 19:07:00,67.5,51.8,30.02,WNW,296,0.0,1.0,57,0.00,,---,0.00,VWS V14.01,2013-09-21 00:07:00,
2013-09-20 19:12:00,67.3,51.6,30.02,WNW,296,0.0,1.0,57,0.00,,---,0.00,VWS V14.01,2013-09-21 00:12:00,
2013-09-20 19:17:00,67.1,51.8,30.02,WNW,296,0.0,0.0,58,0.00,,---,0.00,VWS V14.01,2013-09-21 00:17:00,
2013-09-20 19:22:00,66.8,52.0,30.02,WNW,296,0.0,1.0,59,0.00,,---,0.00,VWS V14.01,2013-09-21 00:22:00,
2013-09-20 19:27:00,66.6,52.3,30.02,WNW,296,0.0,0.0,60,0.00,,---,0.00,VWS V14.01,2013-09-21 00:27:00,
2013-09-20 19:32:00,66.3,52.5,30.02,WNW,296,0.0,0.0,61,0.00,,---,0.00,VWS V14.01,2013-09-21 00:32:00,
2013-09-20 19:37:00,65.9,52.5,30.02,WNW,296,0.0,0.0,62,0.00,,---,0.00,VWS V14.01,2013-09-21 00:37:00,
2013-09-20 19:42:00,65.5,52.6,30.02,WNW,296,0.0,0.0,63,0.00,,---,0.00,VWS V14.01,2013-09-21 00:42:00,
2013-09-20 19:47:00,65.1,52.6,30.02,WNW,296,0.0,0.0,64,0.00,,---,0.00,VWS V14.01,2013-09-21 00:47:00,
2013-09-20 19:52:00,64.7,52.7,30.02,WNW,296,0.0,0.0,65,0.00,,---,0.00,VWS V14.01,2013-09-21 00:52:00,
2013-09-20 19:57:00,64.3,52.7,30.02,WNW,296,0.0,0.0,66,0.00,,---,0.00,VWS V14.01,2013-09-21 00:57:00,
2013-09-20 20:02:00,63.9,53.1,30.02,WNW,296,0.0,0.0,68,0.00,,---,0.00,VWS V14.01,2013-09-21 01:02:00,
2013-09-20 20:07:00,63.4,52.7,30.02,WNW,296,0.0,0.0,68,0.00,,---,0.00,VWS V14.01,2013-09-21 01:07:00,
2013-09-20 20:12:00,63.1,52.8,30.03,WNW,296,0.0,0.0,69,0.00,,---,0.00,VWS V14.01,2013-09-21 01:12:00,
2013-09-20 20:17:00,62.7,52.8,30.03,WNW,296,0.0,0.0,70,0.00,,---,0.00,VWS V14.01,2013-09-21 01:17:00,
2013-09-20 20:22:00,62.3,52.4,30.03,WNW,296,0.0,0.0,70,0.00,,---,0.00,VWS V14.01,2013-09-21 01:22:00,
2013-09-20 20:27:00,62.0,52.5,30.03,WNW,296,0.0,0.0,71,0.00,,---,0.00,VWS V14.01,2013-09-21 01:27:00,
2013-09-20 20:32:00,61.6,52.5,30.03,WNW,296,0.0,0.0,72,0.00,,---,0.00,VWS V14.01,2013-09-21 01:32:00,
2013-09-20 20:37:00,61.3,52.6,30.03,WNW,296,0.0,0.0,73,0.00,,---,0.00,VWS V14.01,2013-09-21 01:37:00,
2013-09-20 20:42:00,61.0,52.7,30.03,WNW,296,0.0,0.0,74,0.00,,---,0.00,VWS V14.01,2013-09-21 01:42:00,
2013-09-20 20:47:00,60.7,52.4,30.03,WNW,296,0.0,0.0,74,0.00,,---,0.00,VWS V14.01,2013-09-21 01:47:00,
2013-09-20 20:53:00,60.4,52.5,30.03,WNW,296,0.0,0.0,75,0.00,,---,0.00,VWS V14.01,2013-09-21 01:53:00,
2013-09-20 20:58:00,60.1,52.2,30.03,WNW,296,0.0,0.0,75,0.00,,---,0.00,VWS V14.01,2013-09-21 01:58:00,
2013-09-20 21:03:00,59.8,51.9,30.03,WNW,296,0.0,0.0,75,0.00,,---,0.00,VWS V14.01,2013-09-21 02:03:00,
2013-09-20 21:08:00,59.6,52.0,30.04,WNW,296,0.0,0.0,76,0.00,,---,0.00,VWS V14.01,2013-09-21 02:08:00,
2013-09-20 21:13:00,59.3,51.8,30.04,WNW,296,0.0,0.0,76,0.00,,---,0.00,VWS V14.01,2013-09-21 02:13:00,
2013-09-20 21:18:00,59.0,51.8,30.04,WNW,296,0.0,0.0,77,0.00,,---,0.00,VWS V14.01,2013-09-21 02:18:00,
2013-09-20 21:23:00,58.8,51.6,30.04,WNW,296,0.0,0.0,77,0.00,,---,0.00,VWS V14.01,2013-09-21 02:23:00,
2013-09-20 21:28:00,58.5,51.7,30.04,WNW,296,0.0,0.0,78,0.00,,---,0.00,VWS V14.01,2013-09-21 02:28:00,
2013-09-20 21:33:00,58.3,51.8,30.03,WNW,296,0.0,0.0,79,0.00,,---,0.00,VWS V14.01,2013-09-21 02:33:00,
2013-09-20 21:38:00,58.1,51.6,30.04,WNW,296,0.0,0.0,79,0.00,,---,0.00,VWS V14.01,2013-09-21 02:38:00,
2013-09-20 21:43:00,57.9,51.4,30.04,WNW,296,0.0,0.0,79,0.00,,---,0.00,VWS V14.01,2013-09-21 02:43:00,
2013-09-20 21:48:00,57.7,51.6,30.04,WNW,296,0.0,0.0,80,0.00,,---,0.00,VWS V14.01,2013-09-21 02:48:00,
2013-09-20 21:53:00,57.5,51.7,30.04,WNW,296,0.0,0.0,81,0.00,,---,0.00,VWS V14.01,2013-09-21 02:53:00,
2013-09-20 21:58:00,57.2,51.4,30.04,WNW,296,0.0,0.0,81,0.00,,---,0.00,VWS V14.01,2013-09-21 02:58:00,
2013-09-20 22:03:00,57.1,51.7,30.05,WNW,296,0.0,0.0,82,0.00,,---,0.00,VWS V14.01,2013-09-21 03:03:00,
2013-09-20 22:08:00,56.8,51.4,30.04,WNW,296,0.0,0.0,82,0.00,,---,0.00,VWS V14.01,2013-09-21 03:08:00,
2013-09-20 22:13:00,56.6,51.5,30.05,WNW,296,0.0,0.0,83,0.00,,---,0.00,VWS V14.01,2013-09-21 03:13:00,
2013-09-20 22:18:00,56.5,51.4,30.05,WNW,296,0.0,0.0,83,0.00,,---,0.00,VWS V14.01,2013-09-21 03:18:00,
2013-09-20 22:23:00,56.4,51.6,30.05,WNW,296,0.0,0.0,84,0.00,,---,0.00,VWS V14.01,2013-09-21 03:23:00,
2013-09-20 22:28:00,56.4,52.0,30.05,WNW,296,0.0,0.0,85,0.00,,---,0.00,VWS V14.01,2013-09-21 03:28:00,
2013-09-20 22:33:00,56.3,51.9,30.05,WNW,296,0.0,0.0,85,0.00,,---,0.00,VWS V14.01,2013-09-21 03:33:00,
2013-09-20 22:38:00,56.3,51.9,30.05,WNW,296,0.0,0.0,85,0.00,,---,0.00,VWS V14.01,2013-09-21 03:38:00,
2013-09-20 22:43:00,56.3,51.9,30.05,WNW,296,0.0,0.0,85,0.00,,---,0.00,VWS V14.01,2013-09-21 03:43:00,
2013-09-20 22:48:00,56.2,51.8,30.05,WNW,296,0.0,0.0,85,0.00,,---,0.00,VWS V14.01,2013-09-21 03:48:00,
2013-09-20 22:53:00,56.0,51.6,30.05,WNW,296,0.0,0.0,85,0.00,,---,0.00,VWS V14.01,2013-09-21 03:53:00,
2013-09-20 22:58:00,56.0,51.6,30.05,WNW,296,0.0,0.0,85,0.00,,---,0.00,VWS V14.01,2013-09-21 03:58:00,
2013-09-20 23:01:00,55.9,51.8,30.05,WNW,296,0.0,0.0,86,0.00,,---,0.00,VWS V14.01,2013-09-21 04:01:00,
2013-09-20 23:02:00,55.9,51.8,30.05,WNW,296,0.0,0.0,86,0.00,,---,0.00,VWS V14.01,2013-09-21 04:02:00,
2013-09-20 23:07:00,55.9,51.8,30.05,WNW,296,0.0,0.0,86,0.00,,---,0.00,VWS V14.01,2013-09-21 04:07:00,
2013-09-20 23:12:00,55.8,51.7,30.05,WNW,296,0.0,0.0,86,0.00,,---,0.00,VWS V14.01,2013-09-21 04:12:00,
2013-09-20 23:17:00,55.8,52.0,30.05,WNW,296,0.0,0.0,87,0.00,,---,0.00,VWS V14.01,2013-09-21 04:17:00,
2013-09-20 23:22:00,55.8,52.3,30.05,WNW,296,0.0,0.0,88,0.00,,---,0.00,VWS V14.01,2013-09-21 04:22:00,
2013-09-20 23:27:00,55.8,52.3,30.05,WNW,296,0.0,0.0,88,0.00,,---,0.00,VWS V14.01,2013-09-21 04:27:00,
2013-09-20 23:32:00,55.7,52.2,30.05,WNW,296,0.0,0.0,88,0.00,,---,0.00,VWS V14.01,2013-09-21 04:32:00,
2013-09-20 23:37:00,55.6,52.1,30.05,WNW,296,0.0,0.0,88,0.00,,---,0.00,VWS V14.01,2013-09-21 04:37:00,
2013-09-20 23:42:00,55.5,52.0,30.05,WNW,296,0.0,0.0,88,0.00,,---,0.00,VWS V14.01,2013-09-21 04:42:00,
2013-09-20 23:47:00,55.4,51.9,30.05,WNW,296,0.0,0.0,88,0.00,,---,0.00,VWS V14.01,2013-09-21 04:47:00,
2013-09-20 23:52:00,55.3,51.8,30.05,WNW,296,0.0,0.0,88,0.00,,---,0.00,VWS V14.01,2013-09-21 04:52:00,
2013-09-20 23:57:00,55.1,51.6,30.05,WNW,296,0.0,0.0,88,0.00,,---,0.00,VWS V14.01,2013-09-21 04:57:00,